Flag for New Zealand Weather past 2 weeks in Auckland, New Zealand

Now
54 °F

Sprinkles. Passing clouds.


Feels Like: 49 °F
Forecast: 45 / 55 °F
Wind: 15 mph from Southwest

Location: Auckland Airport

Current Time: Jul 25, 2014 at 11:32:33 PM

Latest Report: Jul 25, 2014 at 11:00 PM


Visibility: N/A

Pressure: 30.09 "Hg

Humidity: 82%

Dew point: 48 °F

Location of AucklandLocation

Historic Weather in Auckland — Graph

°F

Auckland temperature yesterday

Maximum temperature yesterday: 55 °F (at 10:30 AM)
Minimum temperature yesterday: 39 °F (at 6:00 AM)
Average temperature yesterday: 49 °F

Past Weeks' High & Low Weather Summary

 TemperatureHumidityPressure
High63 °F (Jul 11, 1:30 PM)100% (Jul 12, 4:30 AM)30.15 "Hg (Jul 12, 4:30 AM)
Low36 °F (Jul 18, 8:00 AM)54% (Jul 16, 2:30 PM)29.27 "Hg (Jul 20, 3:30 AM)
Average50 °F85%29.79 "Hg
* Reported Jul 10 10:00 PM — Jul 25 10:30 PM, Auckland, Weather by CustomWeather, © 2014

Note: Actual official high and low records may vary slightly from our data, if they occured in-between our weather recording intervals... More about our weather records

Advertising

Auckland weather history for previous 24 hours

 ConditionsComfort  
Time TempWeatherWind HumidityBarometerVisibility
10:30 PM
Jul 25
52 °FSprinkles. Partly cloudy.22 mph88%30.09 "Hg4 mi
10:00 PM54 °FSprinkles. Passing clouds.17 mph82%30.09 "HgN/A
9:30 PM52 °FLight rain. Partly cloudy.13 mph88%30.09 "HgN/A
9:00 PM54 °FPassing clouds.16 mph82%30.07 "HgN/A
8:30 PM54 °FPartly cloudy.17 mph82%30.07 "HgN/A
8:00 PM54 °FPassing clouds.10 mph82%30.07 "HgN/A
7:30 PM54 °FPassing clouds.16 mph82%30.04 "HgN/A
7:00 PM52 °FSprinkles. Passing clouds.15 mph88%30.04 "Hg5 mi
6:30 PM52 °FLight rain. Mostly cloudy.18 mph82%30.04 "HgN/A
6:00 PM55 °FPartly cloudy.20 mph77%30.04 "HgN/A
5:30 PM55 °FPartly cloudy.22 mph72%30.01 "HgN/A
5:00 PM55 °FPartly cloudy.21 mph77%30.01 "HgN/A
4:30 PM54 °FPassing clouds.25 mph82%30.01 "HgN/A
4:00 PM55 °FBroken clouds.22 mph77%30.01 "HgN/A
3:30 PM55 °FPartly sunny.24 mph77%30.01 "HgN/A
2:30 PM54 °FBroken clouds.18 mph88%29.98 "HgN/A
2:00 PM54 °FRain showers. Broken clouds.24 mph88%29.98 "Hg4 mi
1:30 PM57 °FPassing clouds.22 mph72%29.98 "HgN/A
1:00 PM57 °FScattered showers. Passing clouds.25 mph72%29.98 "HgN/A
12:30 PM57 °FScattered showers. Scattered clouds.21 mph72%30.01 "HgN/A
12:00 PM55 °FPassing clouds.13 mph82%30.01 "HgN/A
11:30 AM55 °FBroken clouds.20 mph82%30.04 "HgN/A
11:00 AM54 °FSprinkles. Partly sunny.20 mph82%30.04 "HgN/A
10:30 AM55 °FBroken clouds.18 mph72%30.01 "HgN/A
10:00 AM54 °FScattered clouds.23 mph77%30.01 "HgN/A
9:30 AM54 °FPartly sunny.15 mph77%30.01 "HgN/A
9:00 AM54 °FScattered showers. Scattered clouds.15 mph82%30.01 "HgN/A
8:30 AM52 °FScattered showers. Passing clouds.13 mph88%30.01 "HgN/A
8:00 AM52 °FScattered showers. Broken clouds.20 mph88%30.01 "HgN/A
7:30 AM52 °FSprinkles. Broken clouds.15 mph82%29.98 "HgN/A
7:00 AM52 °FSprinkles. Broken clouds.15 mph82%29.98 "HgN/A
6:30 AM52 °FBroken clouds.13 mph88%29.98 "HgN/A
6:00 AM52 °FCool.14 mph82%29.98 "HgN/A
5:30 AM52 °FPassing clouds.17 mph82%29.98 "HgN/A
5:00 AM52 °FPassing clouds.12 mph82%29.95 "HgN/A
4:30 AM52 °FPassing clouds.13 mph88%29.98 "HgN/A
4:00 AM52 °FSprinkles. Partly cloudy.13 mph88%29.98 "HgN/A
3:30 AM50 °FLight rain. Passing clouds.12 mph94%29.98 "HgN/A
3:00 AM50 °FSprinkles. Partly cloudy.13 mph94%29.98 "HgN/A
2:30 AM50 °FPassing clouds.8 mph88%29.98 "HgN/A
2:00 AM50 °FLight rain. Partly cloudy.12 mph94%29.98 "HgN/A
1:30 AM52 °FSprinkles. Partly cloudy.16 mph88%29.98 "HgN/A
1:00 AM52 °FSprinkles. Passing clouds.13 mph88%29.98 "Hg4 mi
12:30 AM50 °FPassing clouds.6 mph94%29.98 "HgN/A
12:00 AM50 °FPartly cloudy.9 mph94%29.98 "HgN/A
11:30 PM
Jul 24
52 °FSprinkles. Partly cloudy.10 mph88%29.98 "HgN/A
11:00 PM50 °FPassing clouds.7 mph94%29.98 "HgN/A
Weather by CustomWeather, © 2014

See weather overviewHow to use our weather pages